Date String (YYYY-MM-DD hh:mm:ss) UTC,Instrument flags,Ambient pressure (hPa),Sample flow (lpm),Bypass flow (lpm),Sample temperature (°C),Ambient temperature (°C),ASC tube jacket temperature (°C),LED temperature (°C),Box temperature (°C),Sample RH (%),Span deviation,Mass concentration (μg/m³),Mass concentration (μg/m³),Mass concentration (μg/m³)
DateTimeUTC,F1_M11,P_M11,Q1_M11,Q2_M11,T1_M11,T2_M11,T3_M11,T4_M11,T5_M11,U1_M11,ZSPAN_M11,X0_M11,X2_M11,X1_M11
2022-05-23 10:00:00,,0825.3,4.99,0.00,29.2,28.1,00.0,38.2,31.0,20.8,0000.0,0000.00,0000.00,0000.00
2022-05-23 10:01:00,,0825.3,5.00,0.00,29.2,28.1,00.0,38.2,31.0,20.9,0000.0,0000.00,0000.00,0000.00
2022-05-23 10:02:00,,0825.4,5.01,0.00,29.2,28.1,00.0,38.2,31.0,21.0,0000.0,0000.00,0000.00,0000.00
2022-05-23 10:03:00,,0825.3,5.00,0.00,29.2,28.1,00.0,38.2,30.9,21.0,0000.0,0000.00,0000.00,0000.00
2022-05-23 10:04:00,,0825.2,5.00,0.00,29.1,28.1,00.0,38.2,30.9,21.1,0000.0,0000.00,0000.00,0000.00
2022-05-23 10:05:00,,0825.2,4.99,0.00,29.1,28.0,00.0,38.2,30.9,21.1,0000.0,0000.00,0000.00,0000.00
2022-05-23 10:06:00,,0825.2,5.00,0.00,29.1,28.0,00.0,38.2,30.9,21.1,0000.0,0000.00,0000.00,0000.00
2022-05-23 10:07:00,,0825.1,5.01,0.00,29.1,28.0,00.0,38.2,30.9,21.0,0000.0,0000.00,0000.00,0000.00
2022-05-23 10:08:00,,0825.0,5.01,0.00,29.1,28.0,00.0,38.1,30.9,20.9,0000.0,0000.00,0000.00,0000.00
2022-05-23 10:09:00,,0824.8,5.00,0.00,29.1,28.0,00.0,38.1,30.9,20.6,0000.0,0000.00,0000.00,0000.00
2022-05-23 10:10:00,,0824.7,5.00,0.00,29.1,28.0,00.0,38.1,30.9,20.6,0000.0,0000.00,0000.00,0000.00
2022-05-23 10:11:00,,0824.7,5.01,0.00,29.1,28.0,00.0,38.1,30.9,20.6,0000.0,0000.00,0000.00,0000.00
2022-05-23 10:12:00,,0824.6,4.99,0.00,29.1,28.0,00.0,38.1,30.9,20.4,0000.0,0000.00,0000.00,0000.00
2022-05-23 10:13:00,,0824.6,5.00,0.00,29.1,27.9,00.0,38.1,30.8,20.4,0000.0,0000.00,0000.00,0000.00
2022-05-23 10:14:00,,0824.7,5.01,0.00,29.0,27.9,00.0,38.1,30.8,20.7,0000.0,0000.00,0000.00,0000.00
2022-05-23 10:15:00,,0824.9,5.01,0.00,29.0,27.9,00.0,38.1,30.8,21.0,0000.0,0000.00,0000.00,0000.00
2022-05-23 10:16:00,,0824.9,5.00,0.00,29.0,27.9,00.0,38.1,30.8,20.9,0000.0,0000.00,0000.00,0000.00
2022-05-23 10:17:00,,0824.9,4.99,0.00,29.0,27.9,00.0,38.1,30.8,20.9,0000.0,0000.00,0000.00,0000.00
2022-05-23 10:18:00,,0824.9,5.02,0.00,29.0,27.9,00.0,38.1,30.8,21.0,0000.0,0000.00,0000.00,0000.00
2022-05-23 10:19:00,,0824.9,4.99,0.00,29.0,27.9,00.0,38.0,30.8,21.0,0000.0,0000.00,0000.00,0000.00
2022-05-23 10:20:00,,0824.8,5.01,0.00,29.0,27.9,00.0,38.0,30.7,20.9,0000.0,0000.00,0000.00,0000.00
2022-05-23 10:21:00,,0824.7,5.00,0.00,29.0,27.9,00.0,38.0,30.7,20.9,0000.0,0000.00,0000.00,0000.00
2022-05-23 10:22:00,,0824.6,5.00,0.00,29.0,27.9,00.0,38.0,30.7,21.0,0000.0,0000.00,0000.00,0000.00
2022-05-23 10:23:00,,0824.6,5.01,0.00,29.0,27.9,00.0,38.0,30.7,20.9,0000.0,0000.00,0000.00,0000.00
2022-05-23 10:24:00,,0824.6,4.99,0.00,29.0,27.9,00.0,38.0,30.7,20.9,0000.0,0000.00,0000.00,0000.00
2022-05-23 10:25:00,,0824.6,5.00,0.00,29.0,27.9,00.0,38.0,30.7,20.6,0000.0,0000.00,0000.00,0000.00
2022-05-23 10:26:00,,0824.7,5.00,0.00,29.0,27.9,00.0,38.0,30.8,19.9,0000.0,0000.00,0000.00,0000.00
2022-05-23 10:27:00,,0824.8,4.99,0.00,29.0,27.9,00.0,38.0,30.8,20.0,0000.0,0000.01,0000.01,0000.00
2022-05-23 10:28:00,,0824.8,5.01,0.00,29.0,27.9,00.0,38.0,30.8,19.9,0000.0,0000.03,0000.01,0000.00
2022-05-23 10:29:00,,0824.8,5.01,0.00,29.0,27.9,00.0,38.0,30.8,19.5,0000.0,0000.03,0000.01,0000.00
2022-05-23 10:30:00,,0824.8,5.00,0.00,29.0,27.9,00.0,38.0,30.8,19.5,0000.0,0000.03,0000.01,0000.01
2022-05-23 10:31:00,,0824.7,4.99,0.00,29.0,27.9,00.0,38.0,30.8,19.4,0000.0,0000.04,0000.02,0000.01
2022-05-23 10:32:00,,0824.6,5.00,0.00,29.0,27.9,00.0,37.9,30.8,19.3,0000.0,0000.04,0000.02,0000.01
2022-05-23 10:33:00,,0824.6,5.00,0.00,29.0,27.9,00.0,38.0,30.8,19.1,0000.0,0000.04,0000.02,0000.01
2022-05-23 10:34:00,,0824.6,4.99,0.00,29.0,28.0,00.0,38.0,30.8,19.0,0000.0,0000.04,0000.02,0000.01
2022-05-23 10:35:00,,0824.6,5.00,0.00,29.0,28.0,00.0,38.0,30.8,19.0,0000.0,0000.04,0000.02,0000.01
2022-05-23 10:36:00,,0824.6,5.01,0.00,29.0,28.0,00.0,38.0,30.8,19.3,0000.0,0000.04,0000.02,0000.01
2022-05-23 10:37:00,,0824.5,4.99,0.00,29.0,28.0,00.0,38.0,30.8,19.6,0000.0,0000.04,0000.02,0000.01
2022-05-23 10:38:00,,0824.5,5.01,0.00,29.0,28.0,00.0,38.0,30.8,19.6,0000.0,0000.02,0000.01,0000.01
2022-05-23 10:39:00,,0824.5,5.00,0.00,29.0,28.0,00.0,38.0,30.8,19.4,0000.0,0000.01,0000.01,0000.01
2022-05-23 10:40:00,,0824.5,5.01,0.00,29.0,28.0,00.0,38.0,30.8,19.3,0000.0,0000.01,0000.01,0000.01
2022-05-23 10:41:00,,0824.5,5.00,0.00,29.0,28.0,00.0,38.0,30.8,19.1,0000.0,0000.00,0000.00,0000.00
2022-05-23 10:42:00,,0824.5,5.00,0.00,29.0,28.0,00.0,38.0,30.8,19.0,0000.0,0000.00,0000.00,0000.00
2022-05-23 10:43:00,,0824.6,5.00,0.00,29.0,28.0,00.0,38.0,30.9,18.9,0000.0,0000.00,0000.00,0000.00
2022-05-23 10:44:00,,0824.6,5.00,0.00,29.0,28.0,00.0,38.0,30.9,18.9,0000.0,0000.00,0000.00,0000.00
2022-05-23 10:45:00,,0824.6,5.00,0.00,29.0,28.0,00.0,38.0,30.9,18.8,0000.0,0000.00,0000.00,0000.00
2022-05-23 10:46:00,,0824.6,5.00,0.00,29.0,28.0,00.0,38.0,30.9,19.0,0000.0,0000.00,0000.00,0000.00
2022-05-23 10:47:00,,0824.6,4.99,0.00,29.0,28.0,00.0,38.0,30.9,19.3,0000.0,0000.00,0000.00,0000.00
2022-05-23 10:48:00,,0824.6,5.00,0.00,29.0,28.0,00.0,38.0,30.9,19.6,0000.0,0000.00,0000.00,0000.00
2022-05-23 10:49:00,,0824.6,5.01,0.00,29.0,28.0,00.0,38.0,30.9,19.6,0000.0,0000.00,0000.00,0000.00
2022-05-23 10:50:00,,0824.4,5.01,0.00,29.0,28.0,00.0,38.0,30.9,19.2,0000.0,0000.00,0000.00,0000.00
2022-05-23 10:51:00,,0824.4,4.99,0.00,29.0,28.0,00.0,38.0,30.8,18.8,0000.0,0000.00,0000.00,0000.00
2022-05-23 10:52:00,,0824.3,4.99,0.00,29.0,28.0,00.0,38.0,30.8,19.0,0000.0,0000.00,0000.00,0000.00
2022-05-23 10:53:00,,0824.4,5.00,0.00,29.0,28.0,00.0,38.0,30.8,19.3,0000.0,0000.00,0000.00,0000.00
2022-05-23 10:54:00,,0824.4,4.99,0.00,29.0,28.0,00.0,38.0,30.8,19.5,0000.0,0000.00,0000.00,0000.00
2022-05-23 10:55:00,,0824.4,5.00,0.00,29.0,28.0,00.0,38.0,30.8,19.5,0000.0,0000.00,0000.00,0000.00
2022-05-23 10:56:00,,0824.4,4.99,0.00,29.0,28.0,00.0,38.0,30.8,19.4,0000.0,0000.00,0000.00,0000.00
2022-05-23 10:57:00,,0824.4,5.00,0.00,29.0,28.0,00.0,38.0,30.8,19.4,0000.0,0000.00,0000.00,0000.00
2022-05-23 10:58:00,,0824.3,5.01,0.00,29.0,28.0,00.0,38.0,30.8,19.5,0000.0,0000.00,0000.00,0000.00
2022-05-23 10:59:00,,0824.4,4.99,0.00,29.0,28.0,00.0,38.0,30.8,19.7,0000.0,0000.00,0000.00,0000.00
